• In Hungary
  • List of Countries
  • For 7 days
  • Water Temperature
  • Satellite Maps
  • Weather Map
  • News
  • Weather Widgets
  • user-avatar
    Login

    Hourly Weather Battikaloa

    Today, 21 May, Monday

    Time Temperature Precipitation Wind Pressure Humidity
    00:00 +28°C° 0.1 mm 1 mps 755 mmHg 85%
    01:00 +28°C° 0.1 mm 2 mps 755 mmHg 86%
    02:00 +28°C° 0.1 mm 2 mps 754 mmHg 86%
    03:00 +28°C° 0.4 mm 2 mps 754 mmHg 86%
    04:00 +28°C° 0.4 mm 2 mps 754 mmHg 86%
    05:00 +28°C° 0 mm 2 mps 755 mmHg 87%
    06:00 +29°C° 0.8 mm 2 mps 755 mmHg 83%
    07:00 +30°C° 0.8 mm 2 mps 755 mmHg 79%
    08:00 +31°C° 0.8 mm 3 mps 755 mmHg 75%
    09:00 +31°C° 1.5 mm 3 mps 755 mmHg 73%
    10:00 +33°C° 1.5 mm 3 mps 755 mmHg 71%
    11:00 +32°C° 0 mm 2 mps 756 mmHg 70%
    12:00 +31°C° 1.9 mm 2 mps 755 mmHg 74%
    13:00 +31°C° 1.9 mm 3 mps 755 mmHg 78%
    14:00 +30°C° 1.9 mm 3 mps 755 mmHg 82%
    15:00 +29°C° 0.4 mm 3 mps 755 mmHg 83%
    16:00 +29°C° 0.4 mm 3 mps 755 mmHg 84%
    17:00 +29°C° 0 mm 2 mps 755 mmHg 86%
    18:00 +28°C° 0.1 mm 3 mps 755 mmHg 86%
    19:00 +28°C° 0.1 mm 3 mps 755 mmHg 87%
    20:00 +28°C° 0.1 mm 3 mps 756 mmHg 88%
    21:00 +28°C° 0.1 mm 3 mps 756 mmHg 87%
    22:00 +28°C° 0.1 mm 3 mps 756 mmHg 87%
    23:00 +27°C° 0.1 mm 2 mps 755 mmHg 87%

    Tomorrow, 22 May, Tuesday

    Time Temperature Precipitation Wind Pressure Humidity
    00:00 +27°C° 0 mm 2 mps 755 mmHg 86%
    01:00 +27°C° 0 mm 2 mps 754 mmHg 86%
    02:00 +27°C° 0 mm 1 mps 754 mmHg 86%
    03:00 +27°C° 0 mm 1 mps 754 mmHg 86%
    04:00 +26°C° 0 mm 1 mps 754 mmHg 86%
    05:00 +26°C° 0 mm 1 mps 754 mmHg 87%
    06:00 +28°C° 0 mm 1 mps 755 mmHg 81%
    07:00 +29°C° 0 mm 1 mps 755 mmHg 76%
    08:00 +30°C° 0 mm 1 mps 755 mmHg 71%
    09:00 +32°C° 0 mm 1 mps 755 mmHg 66%
    10:00 +33°C° 0 mm 1 mps 755 mmHg 61%
    11:00 +35°C° 0 mm 1 mps 755 mmHg 56%
    12:00 +35°C° 0.9 mm 2 mps 755 mmHg 59%
    13:00 +35°C° 0.9 mm 3 mps 754 mmHg 63%
    14:00 +34°C° 0.9 mm 4 mps 754 mmHg 66%
    15:00 +34°C° 1.5 mm 4 mps 754 mmHg 71%
    16:00 +33°C° 1.5 mm 4 mps 754 mmHg 75%
    17:00 +31°C° 1.5 mm 3 mps 754 mmHg 79%
    18:00 +30°C° 0.8 mm 3 mps 754 mmHg 81%
    19:00 +30°C° 0.8 mm 3 mps 755 mmHg 82%
    20:00 +29°C° 0.8 mm 3 mps 755 mmHg 84%
    21:00 +29°C° 0.4 mm 3 mps 755 mmHg 85%
    22:00 +28°C° 0.4 mm 2 mps 756 mmHg 86%
    23:00 +28°C° 0.4 mm 2 mps 756 mmHg 86%

    Day after tomorrow, 23 May, Wednesday

    Time Temperature Precipitation Wind Pressure Humidity
    00:00 +28°C° 0 mm 2 mps 755 mmHg 87%
    01:00 +28°C° 0 mm 3 mps 755 mmHg 88%
    02:00 +28°C° 0 mm 3 mps 754 mmHg 89%
    03:00 +28°C° 0.4 mm 3 mps 754 mmHg 88%
    04:00 +27°C° 0.4 mm 3 mps 754 mmHg 88%
    05:00 +27°C° 0.4 mm 3 mps 754 mmHg 87%
    06:00 +28°C° 0.1 mm 2 mps 755 mmHg 82%
    07:00 +30°C° 0.1 mm 2 mps 755 mmHg 77%
    08:00 +31°C° 0.1 mm 1 mps 756 mmHg 71%
    09:00 +32°C° 0 mm 2 mps 755 mmHg 66%
    10:00 +34°C° 0 mm 2 mps 755 mmHg 62%
    11:00 +36°C° 0 mm 2 mps 755 mmHg 57%
    12:00 +35°C° 0.5 mm 3 mps 755 mmHg 60%
    13:00 +35°C° 0.5 mm 3 mps 754 mmHg 63%
    14:00 +35°C° 0.5 mm 4 mps 754 mmHg 66%
    15:00 +33°C° 2.2 mm 4 mps 754 mmHg 70%
    16:00 +32°C° 2.2 mm 4 mps 754 mmHg 75%
    17:00 +30°C° 2.2 mm 4 mps 754 mmHg 80%
    18:00 +30°C° 0.3 mm 4 mps 754 mmHg 81%
    19:00 +29°C° 0.3 mm 4 mps 755 mmHg 82%
    20:00 +29°C° 0.3 mm 3 mps 755 mmHg 83%
    21:00 +28°C° 0 mm 4 mps 755 mmHg 84%
    22:00 +28°C° 0 mm 5 mps 755 mmHg 86%
    23:00 +28°C° 0 mm 5 mps 755 mmHg 87%

    24 May, Thursday

    Time Temperature Precipitation Wind Pressure Humidity
    00:00 +28°C° 0 mm 5 mps 754 mmHg 87%
    01:00 +27°C° 0 mm 4 mps 754 mmHg 87%
    02:00 +27°C° 0 mm 4 mps 753 mmHg 87%
    03:00 +27°C° 0 mm 4 mps 753 mmHg 87%
    04:00 +27°C° 0 mm 3 mps 753 mmHg 86%
    05:00 +27°C° 0 mm 3 mps 753 mmHg 86%
    06:00 +28°C° 0 mm 3 mps 754 mmHg 82%
    07:00 +29°C° 0 mm 3 mps 755 mmHg 79%
    08:00 +30°C° 0 mm 3 mps 755 mmHg 76%
    09:00 +33°C° 0 mm 3 mps 755 mmHg 70%
    10:00 +34°C° 0 mm 3 mps 755 mmHg 64%
    11:00 +36°C° 0 mm 3 mps 755 mmHg 59%
    12:00 +36°C° 0.6 mm 3 mps 754 mmHg 60%
    13:00 +35°C° 0.6 mm 3 mps 754 mmHg 61%
    14:00 +35°C° 0.6 mm 3 mps 753 mmHg 62%
    15:00 +34°C° 1 mm 3 mps 753 mmHg 68%
    16:00 +31°C° 1 mm 3 mps 753 mmHg 73%
    17:00 +30°C° 1 mm 3 mps 753 mmHg 78%
    18:00 +30°C° 0 mm 3 mps 754 mmHg 79%
    19:00 +29°C° 0 mm 3 mps 754 mmHg 80%
    20:00 +29°C° 0 mm 3 mps 755 mmHg 81%
    21:00 +29°C° 0 mm 3 mps 755 mmHg 82%
    22:00 +28°C° 0 mm 3 mps 755 mmHg 83%
    23:00 +28°C° 0 mm 3 mps 755 mmHg 83%

    25 May, Friday

    Time Temperature Precipitation Wind Pressure Humidity
    00:00 +28°C° 0 mm 3 mps 754 mmHg 84%
    01:00 +28°C° 0 mm 3 mps 753 mmHg 84%
    02:00 +27°C° 0 mm 3 mps 753 mmHg 84%
    03:00 +27°C° 0 mm 3 mps 753 mmHg 84%
    04:00 +27°C° 0 mm 3 mps 753 mmHg 84%
    05:00 +27°C° 0 mm 3 mps 753 mmHg 83%
    06:00 +28°C° 0 mm 3 mps 754 mmHg 80%
    07:00 +29°C° 0 mm 3 mps 754 mmHg 76%
    08:00 +30°C° 0 mm 4 mps 755 mmHg 73%
    09:00 +33°C° 0 mm 3 mps 755 mmHg 67%
    10:00 +34°C° 0 mm 3 mps 754 mmHg 62%
    11:00 +36°C° 0 mm 3 mps 754 mmHg 57%
    12:00 +36°C° 0.1 mm 3 mps 754 mmHg 57%
    13:00 +36°C° 0.1 mm 3 mps 753 mmHg 58%
    14:00 +36°C° 0.1 mm 3 mps 752 mmHg 58%
    15:00 +34°C° 1 mm 4 mps 753 mmHg 63%
    16:00 +33°C° 1 mm 4 mps 753 mmHg 68%
    17:00 +32°C° 1 mm 4 mps 753 mmHg 73%
    18:00 +32°C° 0.6 mm 4 mps 754 mmHg 75%
    19:00 +30°C° 0.6 mm 4 mps 754 mmHg 76%
    20:00 +29°C° 0.6 mm 5 mps 755 mmHg 78%
    21:00 +29°C° 0.1 mm 5 mps 755 mmHg 78%
    22:00 +29°C° 0.1 mm 5 mps 754 mmHg 79%
    23:00 +28°C° 0.1 mm 5 mps 754 mmHg 80%

    26 May, Saturday

    Time Temperature Precipitation Wind Pressure Humidity
    00:00 +28°C° 0 mm 5 mps 754 mmHg 81%
    01:00 +28°C° 0 mm 5 mps 753 mmHg 81%
    02:00 +28°C° 0 mm 4 mps 753 mmHg 82%
    03:00 +27°C° 0 mm 4 mps 753 mmHg 82%
    04:00 +27°C° 0 mm 4 mps 753 mmHg 82%
    05:00 +27°C° 0 mm 4 mps 753 mmHg 82%
    06:00 +28°C° 0 mm 4 mps 754 mmHg 79%
    07:00 +30°C° 0 mm 5 mps 754 mmHg 75%
    08:00 +32°C° 0 mm 5 mps 755 mmHg 71%
    09:00 +33°C° 0 mm 5 mps 755 mmHg 67%
    10:00 +34°C° 0 mm 5 mps 754 mmHg 62%
    11:00 +36°C° 0 mm 5 mps 754 mmHg 58%
    12:00 +36°C° 0.7 mm 4 mps 754 mmHg 59%
    13:00 +36°C° 0.7 mm 4 mps 753 mmHg 60%
    14:00 +36°C° 0.7 mm 4 mps 752 mmHg 60%
    15:00 +35°C° 1.2 mm 4 mps 753 mmHg 65%
    16:00 +34°C° 1.2 mm 4 mps 753 mmHg 69%
    17:00 +33°C° 1.2 mm 4 mps 753 mmHg 73%
    18:00 +32°C° 0.6 mm 5 mps 754 mmHg 75%
    19:00 +30°C° 0.6 mm 5 mps 755 mmHg 78%
    20:00 +29°C° 0.6 mm 5 mps 755 mmHg 80%
    21:00 +28°C° 0 mm 5 mps 755 mmHg 81%
    22:00 +28°C° 0 mm 6 mps 755 mmHg 82%
    23:00 +28°C° 0 mm 6 mps 755 mmHg 83%
    Show more